Theta_e
340 342 344 345 343 342 343 346 346 346 347 347 347 347 347 346 346 346 345 342 341 341 341 341 340 340 340 343 343 343 342 342 341 340 343 341 342 341 343 344 344 345 346 346 346 347 347 346 346 345 345 345 346 346 347 347 347 347 346 346 345 346 346 345 344 344 343 344 344 345 345 345 345 345 345 345 345 343 341 341 341 339 340 341 342
340 343 344 343 343 342 343 347 347 346 347 347 346 346 345 344 344 343 343 343 341 340 340 340 340 339 340 341 340 340 341 340 341 341 340 341 341 342 343 342 343 343 343 343 344 344 345 345 345 345 346 346 346 346 346 346 346 346 345 345 345 344 344 344 343 343 343 343 344 343 342 343 343 344 345 345 344 343 341 340 340 340 340 341 341
342 343 344 344 344 344 343 347 346 347 347 346 345 344 343 343 343 342 341 340 340 339 338 339 340 341 342 341 340 338 340 340 340 341 341 340 340 341 341 340 341 342 343 343 342 343 344 344 345 345 346 345 346 346 346 346 345 344 344 344 343 344 343 343 342 341 341 341 341 341 341 343 342 342 344 344 344 342 340 340 340 339 338 341 340
341 343 343 344 344 344 346 347 346 346 346 345 344 343 343 342 342 342 342 341 341 340 340 337 338 342 342 341 341 341 341 341 340 340 339 340 340 340 341 342 345 345 346 347 346 345 345 345 346 346 344 345 345 345 345 344 344 343 343 343 343 342 342 341 341 340 340 339 339 339 339 340 339 344 343 343 342 341 339 339 339 340 339 338 338
341 341 342 343 344 344 344 344 345 346 346 345 343 341 341 341 341 340 339 340 340 340 341 342 341 337 337 340 341 340 340 341 340 340 340 339 339 339 339 342 343 343 343 344 344 344 343 343 344 345 345 345 345 345 344 343 343 343 343 343 342 342 341 340 340 339 338 338 337 338 338 339 339 340 343 343 342 339 338 337 336 337 336 336 336
339 340 340 340 342 344 343 343 343 345 345 344 342 342 341 341 340 340 340 342 342 345 346 345 342 340 339 337 339 340 339 340 340 341 341 341 341 340 340 340 341 343 343 343 343 343 344 343 344 344 344 344 344 343 343 343 343 343 342 341 340 340 339 338 338 337 336 336 336 336 336 338 338 338 341 341 341 339 339 338 337 337 335 334 333
338 339 338 339 340 342 342 342 340 345 345 344 343 343 339 340 339 339 340 343 343 345 345 345 343 341 339 339 339 339 340 339 339 338 338 339 338 338 339 340 342 343 343 344 343 344 344 344 344 344 344 343 344 343 343 342 342 342 341 340 339 338 338 336 336 334 333 334 335 335 334 335 336 337 339 339 338 338 337 338 337 334 332 332 332
338 338 337 338 340 341 342 343 341 339 344 344 343 343 340 339 338 339 344 343 343 343 343 342 341 339 337 337 335 334 335 336 336 338 339 338 337 337 338 339 340 341 342 343 342 345 344 345 344 344 344 343 342 343 342 342 341 340 340 339 338 337 337 336 333 332 331 331 335 335 335 335 335 335 338 339 338 336 334 333 334 334 331 331 331
337 337 337 339 342 340 341 341 339 340 342 343 343 341 339 339 338 342 343 342 342 342 341 340 339 339 338 338 340 339 337 336 340 339 338 338 339 338 339 339 340 343 342 343 343 343 343 343 343 343 343 343 342 342 341 341 340 339 339 338 337 336 335 334 332 330 330 331 332 334 334 333 335 334 336 337 337 335 332 330 331 331 331 330 327
336 337 338 339 341 338 340 341 341 343 345 345 343 341 340 339 338 339 339 339 338 340 340 341 342 339 337 343 344 344 343 342 342 341 341 341 340 339 339 338 338 340 341 341 341 341 342 342 342 341 342 342 342 341 341 340 339 339 337 336 335 335 334 332 330 330 330 331 331 332 333 335 333 333 335 335 334 333 333 334 333 333 331 328 327
336 337 337 338 339 338 342 344 346 345 344 344 345 341 340 338 338 338 339 337 337 339 340 342 341 339 338 343 342 342 341 341 341 341 341 341 341 341 341 340 340 340 341 342 342 342 343 343 342 342 342 342 341 340 340 339 338 337 336 335 335 334 333 330 329 330 331 331 331 331 331 333 332 332 333 334 333 332 333 332 331 329 328 328 328
335 336 336 338 340 337 341 341 344 344 345 344 345 344 340 339 338 337 337 338 338 338 338 340 341 338 337 337 338 338 339 340 339 338 338 339 339 339 338 338 339 341 341 341 341 341 341 341 342 342 341 340 340 340 339 338 337 336 336 335 335 333 331 329 329 330 331 331 331 332 332 330 331 331 333 333 333 331 329 329 329 329 328 328 329
336 336 336 338 339 337 339 341 343 345 344 345 345 345 343 340 338 336 336 336 342 343 343 342 340 338 336 337 337 337 337 337 337 338 338 338 338 338 338 338 338 338 340 340 340 340 341 341 341 341 340 339 339 339 338 338 337 336 336 335 333 332 329 327 329 330 330 331 331 332 333 332 331 332 333 333 332 331 330 330 330 328 328 329 332
334 336 336 337 339 341 336 338 341 344 345 345 345 345 343 341 339 336 335 336 338 342 341 340 339 337 336 336 337 337 337 337 337 337 337 337 338 338 338 337 337 337 337 339 339 339 340 340 340 340 338 339 338 338 338 337 336 336 335 334 332 329 327 327 327 329 330 330 331 331 333 332 331 332 332 332 333 331 330 330 329 328 327 329 329
333 336 335 337 339 340 337 336 339 341 343 345 344 345 344 341 340 337 336 336 337 338 338 337 336 335 335 336 337 336 337 337 337 337 337 337 337 337 337 337 337 336 337 340 339 339 339 339 339 339 338 337 337 337 337 337 336 334 333 332 330 327 325 327 328 329 329 330 330 331 332 332 331 332 331 331 331 330 330 329 329 327 326 327 328
335 336 337 337 338 339 340 338 335 336 339 341 342 343 343 342 341 338 337 337 336 336 336 338 340 338 337 336 337 336 337 336 336 336 338 336 336 336 336 336 336 336 336 337 339 338 338 338 338 338 337 336 336 336 336 335 335 333 332 330 328 326 323 325 328 328 329 329 330 331 332 332 331 331 331 330 330 330 329 329 328 327 326 325 326
335 337 336 337 337 336 337 339 336 332 333 335 338 339 341 342 340 340 339 339 339 337 335 341 343 342 341 338 338 337 336 336 336 338 339 338 336 335 336 336 336 336 336 336 338 338 338 338 338 336 336 335 335 335 335 334 333 331 330 329 328 326 323 323 328 328 328 329 329 330 331 333 331 330 330 330 329 329 328 327 327 326 326 326 327
335 335 334 336 337 335 335 335 337 338 337 335 333 336 338 339 339 339 339 339 339 341 341 341 342 341 339 339 339 339 338 339 338 337 337 337 336 337 338 336 336 336 335 335 336 337 337 337 337 336 336 335 335 334 333 333 331 330 328 327 326 324 322 322 328 327 328 327 328 329 330 331 332 331 329 330 328 329 328 327 327 326 327 328 328
333 333 333 335 335 335 335 335 335 336 334 336 339 339 333 336 336 337 336 337 339 338 338 337 338 338 338 337 337 335 335 335 335 335 335 334 333 332 335 337 335 335 334 334 335 336 336 336 335 334 334 333 333 333 332 331 330 329 327 325 321 319 318 324 327 327 327 327 328 328 329 332 331 332 330 328 328 329 328 327 325 326 325 326 327
332 332 331 333 335 336 336 335 335 334 334 334 335 337 332 331 333 334 334 335 335 335 334 332 330 331 331 331 330 332 330 332 328 333 330 332 331 331 332 335 335 333 333 334 334 335 335 335 335 334 332 331 330 329 329 330 328 327 326 323 320 318 326 325 326 327 326 327 328 328 328 332 333 334 331 329 330 328 328 326 326 325 325 325 327
330 331 331 331 334 334 336 335 334 333 334 334 334 335 334 330 330 330 330 331 332 330 329 324 323 323 325 323 326 334 335 335 335 335 326 334 324 326 330 334 335 333 333 332 333 334 334 335 335 334 331 327 322 321 322 325 326 325 322 318 316 327 325 325 325 325 327 327 327 328 329 332 332 333 331 330 329 328 327 326 325 325 325 326 326
328 329 330 331 332 333 334 335 334 334 334 333 334 334 333 331 336 337 336 333 328 325 328 331 327 330 321 328 332 332 333 333 333 331 334 333 331 324 328 333 334 333 334 332 332 333 333 334 333 331 329 324 318 321 320 318 319 321 318 315 325 326 325 325 325 325 326 327 326 327 328 331 331 333 334 333 332 329 326 325 326 325 326 326 326
327 329 329 331 331 331 333 334 335 334 334 335 335 334 333 333 333 334 334 328 331 329 330 328 328 328 328 329 329 331 331 332 332 331 331 323 331 324 327 329 331 330 332 333 333 332 332 332 329 327 325 320 321 323 324 323 324 317 317 325 326 325 323 326 326 325 325 325 326 324 328 330 331 331 333 334 334 330 326 326 326 326 326 325 325
327 328 329 330 331 331 332 333 333 335 334 335 335 334 334 333 333 332 330 331 331 329 328 327 327 327 327 328 328 328 329 330 326 326 325 330 327 322 322 323 324 323 323 326 324 324 324 323 323 320 317 318 323 324 325 325 325 324 325 324 325 324 325 325 327 326 325 324 325 321 325 329 331 331 332 334 334 332 330 328 327 327 327 326 326
329 330 330 329 330 331 331 331 332 334 334 334 334 334 334 334 333 332 330 329 330 328 328 327 327 327 326 327 327 326 326 326 326 326 327 327 328 328 329 329 327 326 319 325 323 322 320 324 320 318 319 320 324 324 325 326 325 325 325 324 324 323 324 325 326 326 326 325 325 319 322 326 330 331 332 332 333 333 332 332 331 330 330 330 331
331 329 329 329 330 331 331 331 331 333 333 334 333 333 333 333 333 332 330 327 327 328 327 327 326 326 326 326 325 325 324 325 326 326 325 326 327 326 325 324 324 324 320 325 322 321 319 319 318 320 317 320 323 323 322 322 325 325 324 324 323 324 324 325 326 327 327 326 325 319 321 324 329 331 332 333 332 333 333 332 332 332 332 332 332
331 330 330 331 330 331 331 331 330 331 332 333 333 332 332 333 333 332 331 329 328 327 327 327 326 325 325 325 327 325 324 324 324 324 325 324 326 324 324 322 324 324 321 322 323 318 318 319 319 319 316 321 324 322 323 322 321 322 323 323 323 323 323 324 324 325 326 326 322 317 320 325 328 330 331 333 333 333 333 332 333 333 333 332 334
331 331 332 332 331 331 331 331 330 330 331 333 332 330 331 332 331 331 331 330 328 328 327 327 325 324 324 325 325 326 325 324 324 324 324 324 324 322 321 322 321 323 320 322 322 319 320 319 319 320 321 321 324 324 323 323 322 319 323 325 325 324 324 323 322 323 324 324 325 320 318 321 323 327 331 333 334 334 334 333 334 335 335 335 334
331 331 332 332 333 332 332 331 331 330 330 332 330 330 330 330 331 330 329 328 330 329 328 327 325 325 325 325 324 325 325 325 324 324 322 324 322 323 322 322 321 322 321 322 321 323 322 319 320 322 320 323 323 325 322 322 321 321 321 323 322 322 322 322 322 323 323 323 323 322 317 319 322 325 328 331 332 333 334 334 333 334 334 335 334
332 332 332 333 334 333 332 331 331 330 330 330 330 329 329 329 330 329 329 329 329 329 329 327 326 325 325 325 324 326 325 325 325 324 324 323 322 322 322 323 323 322 321 323 321 322 325 322 321 322 323 324 324 324 321 322 322 321 320 321 321 320 320 320 321 321 322 323 323 322 316 317 319 323 326 327 330 332 332 332 332 333 334 334 334
332 331 332 333 333 334 333 333 332 331 331 330 330 329 329 328 329 329 329 328 329 329 329 328 327 325 326 324 325 325 325 325 325 325 324 325 323 322 322 321 322 322 321 322 320 323 323 324 325 325 325 324 324 322 321 323 323 322 321 320 324 322 321 320 320 320 321 322 322 323 322 315 317 319 322 325 327 329 330 331 331 332 333 334 334
331 331 332 333 333 333 334 334 333 333 331 330 330 329 329 329 329 329 329 329 329 328 328 327 326 327 326 325 325 325 324 325 325 324 325 324 324 324 323 321 323 323 321 322 323 321 323 323 321 321 322 322 323 322 321 321 323 322 322 322 322 321 322 322 322 322 322 322 322 322 322 320 316 316 318 320 323 325 326 328 329 331 332 333 333
332 333 333 332 332 333 333 334 334 333 332 331 331 330 330 330 329 329 329 329 328 328 327 327 326 326 326 326 325 325 324 325 324 325 323 325 324 323 323 323 325 324 322 321 321 321 321 321 321 320 320 320 320 322 321 321 321 322 322 321 320 320 320 320 321 321 322 321 321 321 321 321 320 315 315 316 318 321 323 325 326 328 329 330 331
331 332 333 331 332 333 333 334 334 333 332 332 332 331 331 331 330 331 330 330 329 328 327 327 327 326 326 326 326 325 324 325 325 324 325 324 324 323 323 324 324 323 322 322 322 322 322 322 325 322 320 321 322 323 322 322 322 321 321 321 319 320 320 319 320 320 320 320 320 319 319 320 319 320 320 315 315 317 320 322 324 325 326 326 327
330 330 330 331 331 332 332 332 332 333 332 332 332 332 332 332 332 331 332 331 330 329 329 328 327 326 326 326 326 326 325 324 325 325 324 324 324 323 322 322 323 321 321 322 323 323 322 322 322 322 322 320 320 321 321 321 321 321 321 321 320 321 319 319 320 320 320 320 318 318 318 318 319 319 319 319 314 314 315 318 321 323 323 323 324
329 329 330 331 330 331 331 331 332 333 333 332 333 333 333 333 333 328 332 332 331 330 329 329 328 327 326 326 326 326 326 325 324 325 324 323 323 322 323 324 323 322 322 323 322 322 322 322 322 322 322 322 320 322 320 320 319 319 320 319 319 319 319 320 319 320 320 318 318 318 317 317 318 318 314 318 318 315 312 313 317 318 318 320 321
328 328 328 329 329 330 328 329 330 332 333 333 333 333 334 334 334 333 332 332 331 331 330 330 329 327 326 326 327 326 326 326 325 324 324 323 323 323 324 324 324 322 322 322 322 323 323 322 322 320 321 322 321 321 321 318 319 319 319 319 319 319 319 319 318 319 318 318 318 317 317 317 316 311 316 315 316 315 312 311 312 314 313 315 318
326 327 328 328 328 328 328 328 330 332 333 333 333 333 333 334 334 333 331 332 332 332 332 331 329 328 327 327 327 327 326 326 326 324 324 324 324 324 325 325 324 323 323 324 324 324 323 323 323 322 321 320 321 321 321 320 318 318 318 319 319 319 318 318 318 314 316 316 317 316 315 315 315 314 313 313 313 313 314 312 310 310 310 311 315
325 325 326 327 327 327 327 326 328 330 332 333 333 333 334 333 333 333 331 331 331 332 332 331 331 329 328 328 328 327 326 327 326 325 325 325 324 325 325 325 324 324 323 324 324 323 323 322 323 323 319 319 321 321 321 319 317 317 318 319 319 319 320 319 316 315 315 315 314 313 313 313 313 312 311 311 311 312 312 312 312 313 313 308 311
324 324 324 326 326 327 327 326 326 328 330 332 333 332 332 330 329 330 329 329 330 329 331 331 331 330 329 328 328 327 327 326 327 326 326 326 326 326 325 325 324 324 323 322 322 323 323 321 320 321 321 319 317 319 318 318 317 317 318 320 319 319 320 317 315 314 314 314 313 312 312 312 312 311 310 310 310 310 310 310 309 311 311 310 308
322 323 323 324 325 326 325 324 326 326 327 328 329 329 328 329 329 328 327 329 328 329 329 330 330 331 330 329 329 328 328 327 327 327 326 324 326 327 326 325 325 325 324 324 325 324 325 323 323 319 320 319 321 319 318 319 318 318 319 318 318 319 316 313 313 315 314 312 311 312 310 312 313 312 310 309 309 309 309 310 311 311 311 311 310
320 321 322 323 324 325 325 326 327 325 326 327 328 329 330 330 329 329 329 330 329 327 328 329 330 330 329 329 329 328 329 329 327 328 328 328 326 326 326 326 325 324 325 326 325 320 322 321 319 319 317 321 321 318 319 320 317 315 313 313 316 318 313 311 313 315 312 311 310 311 311 311 313 311 309 309 310 309 310 311 311 310 310 310 310
321 321 322 323 323 323 325 326 326 326 325 325 327 328 330 331 332 331 331 329 330 331 331 331 330 330 330 330 329 329 329 329 329 327 328 328 327 327 327 327 326 325 325 325 325 324 324 322 319 322 319 316 319 317 318 320 318 311 313 312 310 310 315 315 310 314 314 314 311 313 310 313 313 309 307 310 311 311 311 310 310 310 309 309 309
319 320 321 322 322 322 324 325 325 326 326 325 323 328 329 330 331 331 331 332 329 329 331 330 330 329 328 329 329 329 329 329 329 328 328 328 328 327 329 329 329 327 326 325 323 322 321 319 319 319 321 320 317 317 316 317 317 312 312 312 309 308 308 310 308 314 309 311 312 313 311 313 312 311 311 311 310 310 310 310 309 309 309 309 308
317 319 320 321 322 323 323 324 325 325 325 324 324 326 325 325 325 322 320 321 319 322 324 325 327 327 328 326 327 327 328 328 329 329 327 329 329 328 328 328 328 328 327 326 325 324 323 324 322 320 319 319 318 316 314 314 315 316 314 309 310 308 307 309 309 313 312 314 312 311 311 311 311 310 310 310 311 310 310 310 309 309 309 308 308
315 317 320 321 322 323 323 324 324 325 325 325 325 324 324 325 323 322 321 321 322 320 320 322 322 322 324 325 325 326 327 327 328 328 328 328 329 329 329 329 328 327 325 326 327 326 324 323 323 322 320 319 319 317 316 312 313 314 314 315 314 312 310 309 310 308 313 311 311 310 311 310 309 309 309 309 309 308 308 307 309 308 308 308 307
313 316 318 320 321 322 323 323 324 324 325 325 324 323 324 325 324 324 324 323 323 324 325 325 326 324 325 324 326 325 326 326 327 328 328 328 329 329 329 329 329 329 326 325 325 325 325 325 323 321 320 317 317 316 316 314 311 312 311 311 311 309 311 310 307 306 304 309 311 310 310 310 308 308 308 308 307 306 306 306 306 306 307 307 307
311 313 315 317 319 320 322 322 323 323 324 325 324 323 324 324 324 324 324 324 324 325 325 324 325 323 324 324 325 324 325 326 326 327 328 328 327 329 329 329 328 327 324 324 324 325 324 321 320 321 320 319 318 318 316 314 316 311 309 310 309 309 311 311 310 307 304 301 305 309 309 308 307 306 308 305 304 305 305 305 304 305 306 307 305
308 311 314 316 317 319 320 321 322 322 323 323 323 323 323 324 324 324 323 323 325 325 321 320 320 320 323 322 323 324 323 323 326 327 327 328 326 328 329 328 326 325 324 324 322 322 322 319 317 317 317 317 318 317 316 314 315 312 308 308 309 308 307 306 306 308 304 301 302 303 303 306 305 305 304 303 304 304 303 302 302 303 304 304 303
304 308 310 312 315 317 318 319 320 321 322 323 322 323 323 322 323 323 323 323 322 318 317 315 318 316 321 319 320 321 320 319 321 324 325 326 326 326 326 326 324 324 322 323 320 319 319 319 319 317 316 315 315 318 317 315 316 315 314 312 310 306 305 304 305 305 304 305 300 300 301 300 298 300 300 301 302 300 301 301 302 304 304 302 301
298 304 308 311 313 315 317 317 319 321 321 322 322 322 323 323 323 323 323 323 322 319 314 314 316 314 319 316 315 318 319 319 320 320 323 324 324 322 324 324 322 317 319 319 319 319 318 317 315 316 316 316 315 314 313 313 313 313 313 314 313 311 310 307 305 304 304 301 299 299 300 299 297 295 299 300 298 299 300 301 302 303 301 300 298
Wind_Speed
7 6 2 4 6 5 7 10 10 11 12 13 13 13 14 15 15 15 15 15 14 13 13 14 14 14 14 15 16 15 15 15 14 14 16 15 13 13 14 15 15 15 16 16 16 16 17 18 18 18 18 18 19 18 18 18 19 19 19 19 19 19 19 19 19 19 19 19 20 19 18 17 18 17 18 18 18 17 14 15 12 11 11 14 18
11 5 2 5 7 7 8 11 11 11 12 13 14 14 13 13 13 13 14 14 14 14 13 13 14 14 13 13 15 14 14 14 14 15 15 14 14 14 15 15 14 15 15 16 16 17 17 17 17 17 17 18 18 18 18 18 19 18 19 19 19 20 19 19 18 18 18 17 17 17 18 18 17 17 18 18 18 17 14 16 16 11 10 16 17
9 5 3 5 6 7 7 12 11 12 13 14 13 13 13 12 13 13 13 13 13 14 13 13 13 14 14 14 14 13 14 14 15 14 15 15 14 14 15 15 15 15 15 15 16 17 16 17 17 17 17 17 17 17 18 18 18 18 18 19 20 19 19 18 17 17 16 16 15 13 13 18 17 16 17 18 18 18 15 17 16 15 12 18 17
9 4 3 4 5 5 6 11 12 12 14 13 13 13 12 12 12 11 12 12 12 12 13 12 12 16 14 12 14 14 14 15 15 15 15 14 14 14 14 15 17 17 17 17 18 18 17 17 18 17 16 17 17 18 18 18 17 18 18 19 19 19 18 18 17 16 16 15 13 10 9 10 12 16 17 17 17 18 15 17 17 18 18 16 16
8 3 3 3 3 3 6 9 13 13 13 13 13 13 12 12 11 11 11 12 12 11 12 14 13 12 12 13 14 14 14 14 14 14 14 14 14 14 14 14 14 16 16 17 17 17 17 17 17 16 16 17 18 17 18 18 18 18 18 19 18 18 18 17 17 16 15 14 12 9 9 11 9 15 17 18 18 15 15 16 16 16 16 17 17
6 4 3 2 3 4 6 7 12 12 13 13 12 12 12 11 10 9 11 12 11 12 13 13 13 13 12 12 14 14 14 14 14 14 14 14 13 13 13 13 15 16 16 16 16 16 16 16 16 17 17 17 17 17 17 17 17 17 17 17 17 17 17 16 15 15 13 11 10 8 9 9 9 10 18 17 17 14 16 16 17 16 15 15 14
6 3 3 3 3 4 5 7 9 13 12 11 12 12 11 10 9 8 11 13 13 14 15 14 14 14 12 12 13 13 13 13 13 13 15 14 13 14 13 13 15 15 16 16 15 15 15 16 17 16 17 17 17 17 17 17 17 17 17 17 17 16 16 15 14 13 11 7 7 7 8 10 9 7 17 16 15 16 16 17 16 14 14 14 14
4 3 3 3 4 3 3 7 8 10 12 11 12 12 11 9 6 9 14 12 11 12 12 12 14 12 11 12 12 12 12 13 13 14 14 14 13 13 13 13 13 15 15 15 15 16 16 18 17 17 18 18 17 16 16 16 16 16 16 16 16 15 15 14 13 12 11 7 6 6 7 7 8 8 14 15 16 15 15 14 14 14 14 14 11
5 4 3 4 4 4 4 8 9 9 11 11 12 12 11 9 6 11 13 12 11 11 10 10 11 13 12 11 12 12 13 12 14 13 13 14 13 13 13 12 14 16 15 15 15 15 17 17 17 17 17 17 16 15 15 15 15 15 15 15 14 14 13 13 12 9 7 6 7 7 8 8 6 8 12 14 14 14 13 10 11 14 14 12 12
4 3 4 4 4 4 4 5 10 11 11 11 10 11 12 10 7 8 10 11 9 9 10 12 13 12 12 13 13 13 12 12 12 12 13 13 13 13 12 12 12 14 15 15 14 14 15 15 15 15 16 15 15 14 14 14 15 14 14 14 14 13 12 11 10 8 6 7 9 9 9 9 8 8 12 13 13 13 10 7 8 10 10 12 13
5 3 3 4 5 4 4 6 9 9 12 10 9 12 12 11 8 7 9 9 10 10 12 13 12 11 11 13 12 12 12 12 12 11 12 13 13 13 12 11 11 13 14 15 15 15 15 15 15 15 15 15 14 14 14 14 14 14 13 13 13 12 12 10 7 6 6 7 8 7 8 7 7 8 12 12 12 12 10 11 11 12 13 13 12
6 4 3 3 4 5 5 5 7 11 11 11 11 7 11 11 9 7 6 7 8 8 9 12 11 10 9 11 11 11 12 13 12 11 11 12 12 12 12 12 11 13 14 14 14 14 14 15 15 15 15 14 13 13 13 13 13 13 13 12 12 11 10 9 6 5 6 6 6 5 7 9 9 10 13 13 12 12 11 12 12 12 12 11 11
7 5 2 3 4 4 5 5 7 9 10 11 12 9 7 11 11 8 6 4 13 14 14 12 10 9 8 11 11 11 10 10 11 11 11 10 10 11 11 11 11 12 13 13 13 13 14 14 14 14 14 13 12 12 12 12 12 12 11 11 11 10 9 8 5 6 5 6 5 5 5 7 9 12 12 12 12 12 12 12 12 12 11 12 16
9 7 2 3 2 3 5 7 7 9 9 10 11 10 8 12 12 9 7 5 8 13 13 11 10 10 9 9 10 10 10 10 11 11 11 11 12 12 11 11 10 11 12 12 13 13 13 13 13 14 13 12 11 11 11 11 11 11 10 10 10 9 7 6 5 5 5 6 5 5 5 6 9 12 12 12 12 12 12 11 12 11 11 12 14
10 8 5 2 2 2 5 7 7 7 8 8 10 9 10 10 12 11 9 7 6 9 10 9 9 8 9 10 11 9 10 10 10 10 10 10 10 10 11 11 10 10 11 13 13 13 13 13 13 13 12 12 11 11 10 10 10 10 9 9 9 8 6 4 4 4 4 4 4 5 4 6 11 12 12 12 12 11 11 11 12 11 10 11 12
9 8 6 4 2 1 2 5 7 8 7 8 9 9 10 10 10 11 10 8 7 7 7 9 10 7 9 10 10 10 10 10 10 9 8 10 10 10 11 11 10 10 10 12 12 12 12 12 13 12 12 11 11 11 10 10 10 9 9 8 8 8 6 4 3 4 4 4 4 4 4 4 10 11 11 11 11 11 10 10 10 10 9 6 8
9 8 8 6 3 2 2 3 4 8 7 8 9 9 9 9 9 10 9 7 7 8 6 10 10 10 9 11 12 10 9 9 9 11 11 10 9 8 9 10 10 9 9 9 11 11 11 12 12 12 11 12 12 12 11 10 9 9 8 8 7 6 6 4 3 3 3 4 3 3 3 4 9 9 11 10 10 10 10 9 9 8 9 8 8
9 9 8 7 5 2 2 2 3 4 4 6 7 8 9 10 10 9 8 7 7 8 10 10 9 9 10 11 10 9 10 10 10 10 10 9 9 7 7 9 10 9 9 9 10 10 10 11 11 12 12 12 12 12 11 10 9 9 8 7 7 6 6 4 3 2 3 3 3 3 3 5 8 10 9 10 7 9 9 8 8 7 9 11 11
9 10 8 7 7 3 3 3 3 4 4 3 3 5 9 10 10 9 8 7 9 9 9 10 9 9 10 10 10 10 9 9 9 9 8 9 9 9 9 9 10 10 9 9 9 9 10 10 10 11 12 11 11 11 11 11 10 8 7 6 6 6 5 2 2 2 2 3 3 3 3 8 9 10 8 5 6 8 8 6 5 6 7 7 9
9 9 8 8 7 6 4 4 3 4 4 4 3 3 7 10 10 9 7 8 8 9 9 9 9 9 9 10 10 9 8 7 9 7 8 8 8 7 8 6 8 8 9 8 8 8 8 9 10 11 11 10 10 10 10 10 9 9 7 7 5 4 3 2 2 2 2 2 3 3 5 8 10 10 5 5 5 4 5 4 4 5 5 5 9
6 7 8 8 7 7 6 4 5 3 4 5 5 5 4 8 7 9 8 8 8 8 8 9 8 8 8 8 8 6 5 4 5 4 6 6 6 8 8 9 9 8 7 8 8 7 7 9 10 10 10 9 8 9 9 9 8 7 7 6 5 3 2 2 2 2 2 2 3 2 7 10 11 11 7 4 4 3 2 1 2 4 4 6 6
8 7 7 8 8 8 8 7 5 6 5 5 4 4 5 4 4 4 5 6 6 6 6 4 4 4 6 6 4 4 4 3 4 4 4 5 5 7 7 7 7 8 7 7 7 7 7 9 9 9 9 8 8 4 4 5 7 7 5 4 3 2 2 2 2 2 2 2 2 4 8 9 9 10 11 10 9 3 0 1 2 3 4 5 5
8 7 8 9 8 8 8 8 8 6 6 5 3 4 5 4 4 3 3 5 5 6 5 5 3 4 3 3 3 3 3 3 3 4 4 4 5 6 7 7 7 7 8 8 10 9 9 8 8 8 7 7 5 3 2 2 2 5 4 4 2 2 2 2 2 2 2 2 3 5 8 10 10 10 11 12 11 4 2 2 2 4 4 4 5
9 9 9 8 8 8 9 9 10 8 6 6 5 4 4 3 4 4 3 3 3 4 4 4 4 4 4 3 3 3 3 3 4 5 5 3 4 6 6 6 6 6 6 4 6 7 6 7 6 6 4 2 2 2 2 2 2 2 2 2 2 2 3 2 2 2 2 2 3 6 7 10 11 10 11 11 11 9 6 5 5 5 5 6 6
8 8 6 9 10 9 9 9 9 8 8 6 6 6 5 4 3 3 3 2 2 2 3 3 4 4 4 3 3 3 3 3 3 3 2 3 3 2 2 2 2 2 4 2 2 2 4 3 3 4 2 2 2 2 2 2 2 2 1 1 1 2 2 2 2 2 2 2 3 6 6 8 10 11 11 11 12 12 10 9 9 9 10 10 11
6 7 9 8 9 10 9 8 9 9 9 7 8 6 5 6 6 4 4 3 3 2 2 2 3 3 3 3 3 4 4 4 3 3 2 2 2 2 2 1 1 1 1 2 1 1 1 1 1 2 1 0 1 1 1 1 2 2 1 1 1 1 1 2 2 2 2 2 3 6 6 8 10 11 12 12 13 13 12 12 11 12 13 14 14
7 8 8 8 9 10 10 9 9 9 10 8 6 6 7 6 6 6 5 4 3 4 3 2 2 3 3 3 4 3 4 4 4 4 4 2 2 2 1 1 1 1 1 1 1 0 0 1 1 1 1 1 1 1 1 1 1 2 1 1 1 1 1 1 1 2 2 2 3 6 7 8 9 10 12 13 13 14 15 14 14 13 14 14 14
8 9 8 8 8 10 11 10 10 10 9 8 8 8 7 6 7 5 6 5 5 5 4 4 3 3 3 3 2 3 4 4 4 4 3 3 3 2 1 1 1 1 1 1 1 1 1 0 0 1 1 1 2 2 2 2 1 0 2 2 2 2 2 2 2 2 2 2 3 5 7 7 8 9 11 13 13 15 16 16 16 16 16 16 15
9 9 8 9 10 9 10 10 9 10 8 9 10 8 7 7 7 7 7 6 6 5 6 4 4 4 3 3 3 3 2 3 4 4 4 3 3 3 2 2 1 1 2 2 1 1 1 1 1 1 0 1 1 2 1 2 1 1 2 2 2 2 2 2 2 2 2 2 2 4 6 7 8 9 11 12 13 14 15 17 17 18 17 18 17
11 10 9 10 9 10 10 11 11 10 9 9 9 8 8 8 8 8 7 6 8 7 6 5 5 4 5 5 5 3 3 3 3 3 4 4 3 3 2 3 3 2 2 3 2 1 1 1 1 1 2 2 2 1 1 2 2 2 2 2 3 2 2 2 2 3 3 3 3 4 7 6 7 9 10 11 12 13 14 16 17 18 18 18 18
10 10 9 9 9 9 11 11 10 9 9 10 9 9 8 8 8 8 7 7 7 7 6 6 6 5 5 6 5 4 3 3 3 3 3 3 3 3 3 2 3 3 3 3 2 2 1 2 1 1 2 2 2 1 2 3 3 2 2 3 3 1 2 1 2 2 3 3 3 4 5 7 7 8 9 11 12 12 13 14 15 16 17 18 19
12 12 10 8 8 10 11 11 11 9 9 10 8 9 9 9 8 8 8 7 7 7 6 6 7 6 6 6 6 5 4 3 4 4 4 3 3 3 3 3 5 4 3 3 3 3 3 2 2 2 2 2 3 3 2 3 3 3 2 3 2 2 2 1 2 2 3 3 3 3 3 5 6 6 8 11 12 12 13 13 14 14 15 17 18
10 12 11 10 11 10 12 12 12 10 12 11 9 9 8 8 8 8 7 7 7 7 6 7 7 6 6 7 7 6 5 5 4 4 4 3 3 3 3 4 4 3 3 4 4 3 2 2 3 2 3 2 3 4 2 3 3 3 2 3 2 3 2 2 2 3 3 3 3 3 3 3 5 6 7 8 10 10 11 12 13 13 14 15 17
10 8 10 12 9 7 8 9 11 13 12 11 9 8 8 7 7 7 7 8 7 7 7 7 7 6 7 8 7 7 5 5 5 4 4 3 3 3 4 4 4 3 3 4 4 3 3 3 4 2 3 3 4 4 2 3 2 2 3 2 2 3 2 3 3 3 3 4 3 3 3 3 3 4 5 6 6 8 9 10 12 13 14 15 16
8 9 12 12 11 10 8 8 9 13 11 12 11 11 10 9 9 8 7 8 7 7 7 7 6 7 7 8 8 8 7 6 6 5 5 4 4 4 4 5 3 4 3 3 3 3 3 4 1 3 3 3 3 3 3 3 3 4 3 1 3 3 2 3 3 3 3 3 3 3 3 3 3 3 3 4 4 5 7 10 12 13 14 14 15
13 12 11 10 13 12 10 10 11 13 13 12 12 11 10 10 9 8 7 8 7 8 7 8 7 7 8 8 8 8 8 7 6 6 5 5 5 5 5 4 4 3 3 3 3 3 3 3 3 3 3 4 3 4 1 2 2 4 3 2 3 3 4 3 4 4 2 3 3 3 2 3 3 3 3 3 4 5 6 8 10 11 11 13 14
13 12 12 11 12 13 11 11 13 13 13 12 12 13 11 11 11 9 9 9 9 9 8 8 7 8 8 9 8 8 8 9 7 7 6 5 5 5 5 5 4 4 4 4 4 4 3 3 3 3 3 4 3 5 3 1 3 3 4 3 3 3 4 4 4 3 3 4 4 3 3 3 3 4 2 3 3 3 5 6 8 9 10 11 13
11 12 13 13 15 13 13 13 12 11 11 12 12 12 11 10 9 8 8 10 12 10 8 8 8 8 8 8 9 9 8 9 8 7 6 6 5 5 5 5 4 4 4 5 5 3 4 4 4 4 4 4 4 4 5 2 2 3 4 4 4 3 4 4 4 2 2 4 3 3 4 4 3 3 3 2 3 2 3 4 5 6 7 8 12
10 12 11 12 11 11 11 11 12 12 11 12 10 11 10 8 8 8 9 10 9 10 8 10 9 7 8 8 9 9 7 8 7 7 6 6 6 5 5 6 6 5 4 4 3 3 4 3 5 4 2 3 4 4 3 2 3 3 4 5 4 4 5 3 2 2 1 2 3 3 2 3 3 3 3 2 2 2 3 3 4 4 5 8 10
9 10 11 11 12 11 10 10 13 13 11 10 9 9 8 9 9 8 8 9 9 8 8 8 7 8 7 8 8 8 7 7 8 8 7 6 6 6 7 7 5 5 5 5 5 5 6 6 6 6 4 3 3 3 2 2 2 3 6 5 3 4 4 1 1 1 1 1 2 2 2 3 2 2 2 3 2 3 3 3 3 4 4 6 7
9 9 11 12 12 12 11 13 13 12 11 10 10 9 9 10 9 11 10 9 9 8 8 8 8 8 8 8 8 8 8 9 8 7 7 7 6 7 7 6 6 6 6 7 7 6 6 6 4 3 5 4 3 2 2 2 1 6 1 3 5 4 2 2 2 1 1 1 0 1 2 2 2 2 3 3 3 3 3 3 4 4 5 5 6
12 13 14 15 14 13 13 14 11 12 14 14 11 10 10 10 9 9 8 8 8 8 9 8 8 7 8 8 8 8 9 9 8 9 8 7 7 6 7 6 6 7 7 7 6 6 5 5 3 2 2 4 3 3 3 3 1 2 4 6 3 4 3 3 5 3 1 1 2 2 2 2 3 3 3 3 3 3 3 4 4 5 5 5 5
14 15 16 13 12 13 14 14 13 13 13 12 11 12 11 10 11 9 10 7 7 8 8 8 8 9 10 10 10 9 10 10 9 9 8 8 8 8 7 7 7 7 6 7 7 6 6 5 5 4 2 2 3 1 3 4 3 2 1 3 2 4 2 2 1 4 4 3 1 4 2 3 5 3 2 3 4 4 4 4 5 5 5 5 5
13 12 12 14 12 13 14 15 14 13 12 13 13 13 12 11 11 10 9 10 8 8 9 8 9 10 10 10 9 9 9 9 10 9 8 8 9 9 8 7 7 7 7 7 6 7 5 4 5 6 5 5 3 2 3 4 3 3 2 1 2 1 1 0 2 3 1 2 4 2 3 5 4 4 4 6 6 5 4 4 5 5 5 5 5
13 14 14 14 12 17 17 16 14 13 12 13 14 12 9 8 7 4 3 3 1 4 5 7 9 9 9 8 8 8 9 9 9 9 9 9 9 9 8 8 7 7 7 7 7 7 7 6 7 6 7 6 4 3 0 3 5 2 0 1 0 1 1 2 6 2 1 1 1 2 3 4 4 4 5 5 5 4 5 6 5 5 5 6 5
13 14 15 16 16 15 14 13 12 12 13 14 14 11 11 11 10 10 10 8 9 8 11 12 9 8 8 5 6 9 9 9 9 9 9 9 9 9 9 7 8 6 6 7 7 6 5 7 8 7 7 7 5 3 3 1 1 1 1 1 2 1 2 1 3 4 2 1 1 1 2 2 2 6 4 4 5 5 4 5 5 5 5 5 5
15 12 11 13 13 12 11 13 13 12 13 13 13 12 12 12 14 14 13 13 12 10 9 8 8 7 7 8 9 8 9 10 9 9 9 9 9 8 8 8 8 7 7 6 6 7 6 7 5 6 6 5 4 4 5 3 2 1 1 1 2 3 3 2 2 1 5 4 3 6 3 2 3 5 4 3 3 4 3 2 5 5 5 4 4
11 7 11 10 12 14 13 14 12 12 11 11 13 13 14 13 13 13 13 13 14 13 10 9 8 7 8 9 8 8 9 9 9 9 9 9 9 8 8 7 8 7 6 6 7 6 4 4 5 5 5 6 6 6 5 5 5 3 1 3 4 3 2 1 3 3 1 2 8 5 1 6 9 7 4 6 6 5 7 5 5 5 4 4 5
8 11 12 12 11 11 11 11 12 12 11 13 13 14 13 13 13 12 13 11 11 9 6 7 8 8 9 8 8 8 8 8 8 9 9 9 8 7 8 7 7 6 7 6 5 5 6 6 6 4 5 5 5 4 5 4 4 5 4 2 3 3 3 3 3 3 2 1 6 5 7 7 4 0 5 7 6 4 4 3 3 3 4 6 7
9 8 7 6 9 9 12 13 14 12 12 13 14 14 14 12 13 13 15 12 9 6 6 7 8 8 9 9 8 7 7 6 7 7 7 8 8 8 7 8 6 6 6 7 7 6 6 6 6 6 6 6 5 5 5 5 4 5 5 6 3 3 3 2 2 2 2 3 5 5 5 6 6 4 5 4 7 8 6 4 4 3 6 6 6
6 7 9 9 9 10 12 13 16 12 12 13 14 15 14 14 14 14 15 14 12 10 8 7 7 8 9 9 8 8 7 8 7 7 7 7 7 7 7 7 6 6 5 7 7 6 6 6 6 7 7 8 6 6 6 5 5 5 5 4 4 4 4 3 3 2 2 3 3 6 5 4 5 7 3 6 6 6 4 4 4 6 7 6 7
Wind_Direction
178 172 185 179 140 136 111 104 110 112 107 104 103 101 94 93 96 95 93 90 89 89 92 92 92 85 81 81 79 78 77 77 81 80 72 72 69 80 83 79 76 77 75 71 75 79 80 78 77 78 77 75 74 74 72 71 71 68 67 66 65 63 61 61 58 57 55 52 57 62 64 65 67 70 72 69 66 62 57 54 50 57 58 56 55
161 171 172 148 148 139 129 114 112 109 108 106 99 89 89 91 95 95 91 92 91 90 92 96 89 87 90 86 80 79 81 83 81 79 79 77 80 81 83 84 81 76 78 78 79 79 79 79 80 78 76 76 77 76 75 73 70 69 68 68 67 66 65 59 55 52 50 50 49 52 59 61 61 68 69 69 66 63 59 57 54 54 56 57 54
143 143 156 153 146 147 145 126 118 119 105 96 93 91 90 93 96 95 93 95 98 99 95 90 97 102 93 91 95 95 91 85 84 82 85 85 86 84 82 82 86 82 79 80 81 80 81 82 80 79 79 78 78 76 74 73 71 69 68 68 68 64 60 58 55 53 52 51 51 48 45 57 56 60 68 67 66 62 57 56 54 54 53 53 54
139 144 145 152 154 168 166 130 121 109 104 98 93 89 89 92 93 97 100 101 100 101 102 101 96 91 93 97 96 93 91 93 90 88 85 86 81 82 86 85 79 83 84 85 85 82 82 82 80 79 79 82 83 80 78 75 72 70 69 69 66 64 62 58 54 51 49 46 43 40 50 57 56 60 65 67 65 62 57 55 53 51 49 49 49
140 138 134 130 141 147 107 113 118 110 105 100 96 93 91 90 96 100 102 95 93 95 98 102 94 93 96 91 87 91 86 85 85 88 90 88 86 85 86 85 90 84 79 78 81 85 85 85 83 80 78 77 79 80 78 76 73 72 70 68 66 63 60 57 53 48 45 43 37 46 52 57 61 64 65 64 63 60 62 61 56 53 51 48 48
136 133 114 101 109 105 106 121 122 109 104 102 98 96 94 96 103 108 103 99 100 95 99 102 99 95 90 94 92 91 90 84 86 87 88 90 91 89 91 96 86 82 79 80 84 90 91 88 86 86 84 82 79 78 76 75 74 72 70 68 66 63 60 57 53 48 42 38 36 48 46 49 52 53 56 58 62 60 61 61 60 57 54 49 48
133 118 109 111 104 110 124 128 135 120 109 107 107 101 97 95 98 108 110 108 106 107 102 96 93 92 97 94 89 93 96 96 94 96 91 84 85 95 97 92 86 84 83 85 84 85 88 88 81 82 85 82 78 77 76 75 74 73 71 69 67 64 60 55 50 47 40 39 47 45 48 45 48 54 54 57 57 58 57 56 59 56 52 51 48
108 109 115 112 116 111 107 125 120 129 116 117 112 108 108 107 108 111 99 99 99 93 100 100 96 92 87 89 92 86 84 94 98 92 94 99 100 93 97 93 84 88 87 83 85 85 90 86 85 82 79 78 78 77 76 77 76 75 72 70 66 63 59 55 50 48 41 46 41 43 44 39 47 58 59 60 61 59 53 52 56 58 55 54 48
121 120 122 120 113 111 101 117 132 131 127 123 121 117 110 106 98 112 111 106 100 97 97 101 96 96 98 97 97 101 100 92 81 87 91 93 90 91 90 96 98 91 89 88 86 86 84 87 85 82 81 79 78 78 77 78 77 76 74 71 67 64 61 56 52 41 47 46 39 42 41 43 38 58 60 65 63 60 57 56 60 59 60 50 43
122 118 124 122 122 110 123 157 144 138 131 130 133 125 114 110 110 110 108 108 107 108 107 100 103 107 101 91 94 95 94 90 89 85 82 83 88 91 96 97 85 80 84 84 85 86 86 86 86 85 83 80 79 79 78 77 77 75 73 71 70 66 62 57 53 47 48 46 45 41 37 22 46 53 59 60 60 55 55 43 46 55 59 51 49
131 125 128 129 134 137 142 101 122 134 130 132 129 124 122 118 117 107 108 113 117 121 110 109 105 101 103 107 106 105 103 97 96 97 95 93 91 88 85 85 89 91 88 88 88 86 85 86 86 83 83 83 82 81 80 79 78 77 75 73 70 67 62 57 51 58 51 48 47 40 36 15 48 52 51 53 57 57 47 43 42 47 48 49 49
138 138 136 146 143 146 118 90 136 134 129 134 137 128 127 123 120 110 87 104 116 115 111 99 100 99 100 99 95 94 100 102 98 98 98 98 96 99 100 98 101 93 88 86 81 79 83 81 83 83 83 84 83 82 82 81 79 78 75 73 71 67 59 52 56 57 53 46 44 32 34 42 50 53 56 60 55 54 52 55 51 49 49 36 38
146 146 158 150 146 137 123 100 120 131 133 139 140 124 119 128 120 114 108 92 101 95 98 101 98 99 102 101 103 98 97 97 98 93 92 93 94 93 94 91 92 96 88 86 85 84 83 83 81 83 83 83 83 81 81 80 78 75 73 72 69 64 61 47 57 55 51 44 43 32 32 48 53 50 49 51 58 58 54 48 50 47 43 39 41
152 158 168 150 150 141 121 102 106 132 134 139 140 121 121 132 127 124 117 96 105 110 111 118 118 109 112 112 106 104 101 101 101 103 103 99 96 95 95 95 95 99 94 87 85 84 84 86 84 83 85 84 84 83 80 80 77 74 70 68 65 63 55 59 48 55 51 43 38 31 26 52 56 55 54 51 46 44 47 47 47 47 45 40 40
156 160 159 149 140 143 122 101 100 112 130 134 137 123 114 127 134 132 129 127 117 122 124 120 107 112 124 119 109 111 105 96 93 92 90 91 92 91 92 92 93 97 101 94 89 85 82 83 85 84 84 81 80 80 78 78 78 74 69 66 64 61 53 67 54 52 49 41 36 26 22 53 59 56 55 53 51 49 44 41 45 46 48 45 44
156 158 153 142 119 111 86 101 95 103 116 128 131 126 127 130 126 133 134 129 126 108 107 107 94 109 132 112 116 111 104 97 92 87 85 90 92 95 96 97 96 97 102 98 93 88 85 83 84 82 79 78 75 75 75 75 76 74 68 64 61 60 52 64 67 50 51 42 32 24 12 26 57 58 54 55 53 49 44 43 46 46 43 56 61
155 155 159 160 135 119 67 74 92 93 99 116 132 132 133 133 128 126 126 124 113 116 104 96 97 84 95 108 101 95 97 102 91 64 58 60 74 86 90 96 100 101 101 101 93 87 85 82 78 79 76 73 70 67 67 67 66 68 66 62 59 56 56 52 65 51 45 34 21 4 5 3 62 61 51 46 49 49 44 41 40 41 31 3 35
157 159 162 167 169 141 113 104 95 89 96 106 124 140 134 127 122 116 117 122 117 100 96 97 97 96 96 100 101 99 96 90 81 74 68 59 48 60 94 103 102 103 99 91 88 86 84 79 75 73 74 69 64 61 58 60 62 60 61 56 52 49 49 48 58 47 34 21 16 354 351 340 308 28 41 51 63 50 49 41 35 27 11 342 55
159 164 166 173 176 164 157 137 114 112 102 93 76 128 128 126 123 123 124 107 100 111 110 109 107 105 103 102 103 102 97 94 91 84 78 65 57 55 55 76 96 96 95 90 89 86 81 73 71 69 67 65 60 55 53 51 52 55 53 57 54 47 42 39 47 30 17 18 3 352 354 328 348 347 75 68 59 70 45 45 39 23 359 5 1
161 165 171 176 182 185 167 158 155 142 131 124 123 103 127 127 127 127 126 110 111 111 115 109 110 109 107 109 108 104 100 97 95 89 82 74 68 59 54 77 101 103 101 102 96 88 83 73 69 66 64 62 59 54 49 48 44 41 37 38 39 36 37 25 17 19 352 1 353 343 329 336 344 355 30 116 41 54 51 49 26 7 12 3 354
166 171 176 176 190 190 187 169 173 158 146 140 133 126 118 128 130 135 129 117 116 113 109 108 108 109 111 110 109 109 110 109 104 102 93 90 80 73 73 66 64 77 94 95 97 84 79 74 65 60 58 59 64 64 54 45 39 42 36 33 25 20 15 4 351 342 336 340 339 334 329 338 347 352 359 26 41 67 59 56 356 358 357 356 352
174 175 186 178 189 189 193 194 187 178 166 155 148 142 135 121 134 134 135 124 117 114 111 110 109 108 113 115 112 119 120 121 119 114 109 106 96 90 83 77 70 65 69 92 89 72 76 64 56 53 50 49 47 54 44 36 30 25 31 32 36 23 1 348 333 332 330 326 330 331 330 334 338 333 337 5 346 326 182 213 301 328 330 340 343
185 183 189 186 189 189 191 195 197 184 174 163 151 146 146 146 150 148 129 133 134 124 123 117 122 119 114 112 121 126 129 129 131 129 123 114 106 103 93 86 80 74 72 62 65 66 62 63 60 55 49 47 47 41 35 35 27 22 25 26 18 15 343 325 321 316 314 327 311 322 325 326 326 330 330 334 341 278 242 266 278 290 298 308 313
184 185 184 186 189 193 194 194 198 190 182 179 173 162 160 153 156 161 153 149 132 135 131 132 138 136 134 129 126 117 121 121 113 107 111 115 98 79 78 78 73 64 61 68 58 57 58 54 51 50 48 40 45 41 31 26 34 23 22 24 18 3 348 343 324 316 312 316 303 317 318 320 320 322 330 329 330 359 309 288 308 298 297 287 287
182 176 177 187 192 192 190 193 196 198 194 187 187 191 170 164 164 170 161 174 149 143 146 145 142 145 141 140 134 133 135 134 134 135 126 126 116 100 82 73 56 61 38 70 30 36 33 28 14 38 38 29 36 32 10 16 18 13 22 20 13 355 345 326 325 308 302 306 301 310 311 313 311 314 322 324 327 327 327 317 310 305 303 300 311
157 179 191 187 191 193 190 188 194 198 198 193 196 193 173 193 189 180 183 184 190 166 163 162 155 153 147 141 127 138 138 144 148 144 132 136 128 128 104 76 97 88 46 78 75 42 51 37 40 39 17 330 43 53 44 18 354 353 350 359 348 336 338 331 321 310 301 298 292 302 299 301 303 303 309 312 317 316 317 317 314 310 305 306 307
163 192 192 193 191 194 193 190 193 193 196 196 194 195 196 201 202 203 195 198 192 188 191 180 177 160 158 150 151 151 154 159 159 159 155 145 148 141 139 117 122 136 122 145 127 89 71 57 22 15 342 338 348 12 359 6 22 330 313 317 319 315 324 328 311 299 293 289 292 290 289 293 297 300 299 302 307 310 312 312 311 313 309 312 315
173 188 193 195 190 196 195 194 194 192 193 194 194 195 198 195 202 195 203 194 189 206 205 201 186 184 171 167 161 164 162 167 171 168 166 159 170 164 154 155 135 171 171 184 170 167 167 160 349 298 324 341 319 341 338 338 335 283 302 308 312 310 309 306 293 280 285 288 281 285 286 282 290 291 296 300 303 308 310 313 314 314 316 315 322
190 188 191 196 198 194 194 196 194 194 193 194 197 196 196 194 194 200 205 193 201 206 207 205 203 196 183 167 173 169 176 164 174 179 164 182 185 185 184 191 205 203 202 215 197 147 188 224 248 284 303 302 305 310 329 307 303 281 281 283 283 290 290 287 291 297 284 289 295 286 287 283 289 295 300 302 306 307 310 313 315 315 316 317 318
205 194 190 197 198 192 196 200 199 196 196 194 198 195 193 195 198 200 200 193 208 210 203 208 212 201 200 193 189 179 176 180 167 175 177 197 200 196 203 209 209 215 214 229 220 217 218 196 239 250 283 281 289 297 304 290 274 259 253 268 260 266 269 278 302 313 315 313 301 301 294 295 300 307 307 308 308 309 311 315 316 316 317 318 321
200 201 196 198 195 190 200 202 203 197 195 198 197 199 195 199 199 198 194 199 200 199 206 212 210 211 206 194 190 185 170 177 178 174 185 187 197 204 217 220 233 221 217 232 215 218 223 235 243 275 282 286 280 282 285 284 277 264 233 245 255 257 261 255 269 287 289 295 292 293 307 310 306 302 303 304 306 310 314 315 316 317 320 323 326
201 205 202 192 188 197 198 201 204 197 196 204 200 202 200 202 196 196 199 199 194 199 203 207 213 213 206 201 198 193 178 176 184 182 188 189 196 205 217 220 231 230 221 227 221 216 222 235 245 248 250 256 274 267 239 255 266 267 276 266 281 279 283 285 289 270 272 271 277 288 300 304 304 301 304 307 312 318 319 319 319 323 325 329 330
208 204 201 195 198 193 203 203 201 202 199 206 205 206 205 202 198 201 202 195 197 201 202 206 207 210 208 204 202 191 183 183 191 188 188 196 194 201 214 227 228 210 214 221 220 217 215 221 245 220 241 245 265 262 236 241 257 264 258 271 290 273 268 275 267 271 274 283 285 300 295 311 312 311 301 306 317 322 323 325 327 329 332 333 333
206 203 199 207 201 200 200 206 202 207 202 208 206 207 207 205 203 203 202 199 203 203 208 209 206 207 208 206 201 195 185 187 179 189 192 192 197 206 214 229 222 208 210 212 221 215 229 209 212 186 232 226 243 256 249 248 241 262 262 276 249 263 268 259 260 273 284 280 299 303 307 309 311 305 312 316 323 322 324 327 329 335 339 339 337
205 208 209 206 202 204 197 210 202 208 202 207 207 209 208 208 205 206 202 203 204 205 208 210 207 209 206 209 202 197 192 185 187 180 194 190 196 207 216 230 202 193 196 202 217 218 217 236 244 225 212 221 239 261 251 264 287 284 281 283 281 283 273 273 282 277 277 298 306 296 304 303 299 305 322 328 325 325 330 334 339 342 342 340 338
208 209 210 205 210 207 203 209 207 208 208 206 209 209 207 210 209 205 204 201 205 207 208 206 206 209 207 209 203 199 196 195 183 184 184 192 196 203 217 223 199 193 209 193 203 220 222 251 244 252 256 242 213 252 182 255 271 281 284 286 289 292 284 281 283 286 304 315 297 308 315 304 308 326 335 330 330 333 337 338 340 342 340 338 337
205 206 208 207 213 209 206 209 213 211 210 207 209 212 212 212 212 205 205 205 210 211 210 209 210 209 208 210 203 197 198 197 192 186 191 189 197 204 217 211 193 195 191 187 198 210 214 222 232 212 233 262 248 275 275 247 274 274 283 285 282 288 283 288 285 294 332 306 316 327 323 331 329 333 344 343 331 324 336 335 338 336 333 334 336
203 204 205 207 212 208 210 209 212 210 210 207 205 210 210 206 208 206 203 209 214 213 208 205 208 206 202 210 205 198 198 197 192 188 195 196 197 204 215 201 186 198 201 184 198 188 203 203 235 211 201 206 244 253 279 269 256 280 287 282 282 274 278 271 271 312 309 309 321 336 341 330 331 348 350 341 327 329 327 335 328 323 323 332 335
202 202 201 203 206 207 207 208 209 209 209 208 207 208 207 206 205 207 205 210 213 216 210 209 209 201 204 206 206 202 195 192 188 183 193 195 200 207 212 200 183 190 196 215 188 179 189 203 223 232 180 222 242 249 267 314 288 279 285 291 287 283 272 267 294 283 279 293 319 326 323 337 337 356 345 339 339 335 339 347 345 340 341 334 334
202 199 203 204 208 207 206 205 209 209 205 206 203 204 198 199 201 202 211 208 212 212 207 211 204 205 201 201 204 205 197 193 189 189 193 193 198 199 205 200 187 186 190 192 186 186 196 196 221 226 232 254 237 254 236 239 278 294 293 286 291 281 278 353 327 287 294 343 343 327 352 342 350 344 341 343 347 346 353 348 340 335 330 333 330
204 199 204 209 208 208 200 209 210 205 202 205 204 195 198 202 208 206 207 210 208 207 204 204 204 204 200 200 206 207 201 200 199 190 194 198 200 204 204 197 187 188 184 204 202 203 199 188 201 193 207 225 246 199 207 184 336 310 283 301 308 281 327 1 35 347 34 24 55 20 20 1 359 357 356 347 347 358 352 344 342 338 338 336 340
208 202 208 209 207 204 206 214 208 203 207 206 201 204 205 205 197 208 207 210 205 201 208 204 202 198 195 198 207 206 204 203 197 198 197 191 201 204 201 200 191 203 202 201 200 203 198 196 151 191 207 227 257 180 167 148 284 253 314 327 324 334 17 33 52 27 112 93 40 62 39 19 357 8 353 342 359 353 345 346 344 339 336 338 336
207 207 212 208 206 208 213 215 211 204 209 204 201 208 208 207 205 208 203 211 207 205 207 199 194 202 200 201 206 204 206 208 199 197 200 201 203 198 201 200 196 197 206 217 211 210 206 193 176 209 201 219 260 237 164 193 254 146 126 285 341 12 347 8 318 1 12 25 48 57 25 15 5 20 353 338 350 344 342 347 340 336 334 339 339
212 213 208 209 209 213 213 213 212 207 208 206 206 209 205 204 209 210 206 206 207 202 206 203 203 205 207 204 203 198 202 207 202 197 201 202 201 202 196 194 200 197 201 218 213 223 198 199 203 211 210 240 204 257 199 204 188 135 245 240 313 17 17 89 323 286 260 355 40 49 22 9 358 11 355 352 341 335 339 346 339 336 339 340 340
211 209 204 206 208 211 211 208 209 206 206 203 205 202 194 196 200 192 178 206 72 187 199 210 209 206 207 198 197 189 199 206 205 200 199 203 202 202 200 202 201 199 191 207 212 214 213 196 194 201 192 202 224 200 151 199 205 229 155 125 346 10 212 286 335 330 27 62 77 72 58 6 8 1 348 333 332 332 337 341 341 344 345 344 343
213 213 206 209 209 212 208 207 210 210 209 206 199 191 197 195 188 192 199 195 205 193 198 202 189 196 202 186 182 189 198 204 203 204 203 200 201 204 202 190 200 206 203 207 210 205 208 216 213 205 203 201 195 161 190 187 199 277 306 63 166 233 322 294 25 306 342 140 281 133 79 50 355 338 338 323 332 332 341 329 338 338 344 344 341
220 210 208 216 214 215 207 205 208 210 208 204 193 192 200 201 200 202 203 205 210 215 211 208 205 200 186 186 193 192 195 199 203 202 203 205 209 202 197 202 195 190 195 199 211 213 215 215 196 194 197 172 169 169 200 182 133 78 65 122 85 83 123 143 225 359 323 320 302 335 352 107 337 328 328 338 331 316 338 351 336 336 340 349 355
220 187 213 212 208 210 205 206 209 210 207 200 195 196 201 202 202 205 206 210 210 215 199 201 193 177 187 190 187 193 196 198 199 202 204 204 207 201 198 201 207 202 178 191 200 205 200 173 184 187 158 163 171 192 188 165 163 143 94 105 87 99 125 121 115 162 172 304 312 340 181 351 346 337 346 346 343 340 334 349 349 346 344 16 22
219 210 213 208 208 207 206 207 211 209 207 199 199 201 204 201 203 205 210 215 211 211 181 181 184 180 190 190 191 191 194 200 201 198 202 203 204 206 199 201 198 181 173 180 188 168 179 164 142 139 166 158 169 173 136 165 146 148 122 78 125 119 96 79 129 133 140 268 282 279 310 334 334 258 352 331 322 317 321 335 340 345 1 29 27
221 223 227 210 207 201 203 204 212 207 204 201 201 202 203 202 206 209 212 211 202 188 165 170 182 177 190 189 193 190 191 190 199 205 201 202 198 199 195 189 192 183 171 163 160 165 166 159 155 153 157 151 155 153 144 151 146 145 159 152 150 127 116 122 122 128 95 206 239 268 297 308 317 313 336 318 319 324 335 347 350 29 41 42 36
223 212 216 211 204 203 205 207 213 207 202 204 200 205 202 203 210 209 211 211 200 185 166 176 178 176 190 183 181 194 187 194 197 200 204 199 200 191 189 183 169 166 155 151 164 159 157 141 135 141 152 151 146 125 116 127 137 147 157 168 152 160 168 172 167 146 157 235 277 273 269 260 255 286 289 310 313 311 323 344 354 23 31 34 27